| time (UTC) | temp F | wind direction | speed MPH | gust MPH | rain 1hr in | rain 24hr in | rain mn in | humidity % | barometer mb |
| 20260506214605 | 38 | 83 | 1.0 | 4.0 | 0.00 | 0.07 | 0.07 | 79 | 1013.6 |
| 20260506213643 | 38 | 131 | 2.0 | 4.0 | 0.00 | 0.07 | 0.07 | 78 | 1013.6 |
| 20260506212559 | 38 | 131 | 2.0 | 2.0 | 0.00 | 0.07 | 0.07 | 77 | 1013.6 |
| 20260506211556 | 38 | 135 | 2.0 | 2.0 | 0.00 | 0.07 | 0.07 | 76 | 1013.6 |
| 20260506210633 | 38 | 0.0 | 0.0 | 0.00 | 0.07 | 0.07 | 75 | 1013.6 | |
| 20260506205550 | 39 | 0.0 | 0.0 | 0.00 | 0.07 | 0.07 | 73 | 1013.7 | |
| 20260506204546 | 39 | 0.0 | 0.0 | 0.00 | 0.07 | 0.07 | 73 | 1013.6 | |
| 20260506203544 | 39 | 236 | 1.0 | 2.0 | 0.00 | 0.07 | 0.07 | 74 | 1013.5 |
| 20260506202540 | 39 | 234 | 1.0 | 4.0 | 0.00 | 0.07 | 0.07 | 73 | 1013.5 |
| 20260506201557 | 40 | 244 | 1.0 | 2.0 | 0.00 | 0.07 | 0.07 | 72 | 1013.5 |
| 20260506200534 | 40 | 248 | 2.0 | 4.0 | 0.00 | 0.07 | 0.07 | 70 | 1013.5 |
| 20260506195531 | 40 | 225 | 2.0 | 4.0 | 0.00 | 0.07 | 0.07 | 70 | 1013.6 |
| 20260506194528 | 42 | 244 | 3.0 | 4.0 | 0.00 | 0.07 | 0.07 | 70 | 1013.4 |
| 20260506193524 | 42 | 282 | 3.0 | 6.0 | 0.00 | 0.07 | 0.07 | 64 | 1013.3 |
| 20260506192521 | 43 | 267 | 4.0 | 7.0 | 0.00 | 0.07 | 0.07 | 64 | 1013.4 |
| 20260506191518 | 43 | 281 | 4.0 | 7.0 | 0.00 | 0.07 | 0.07 | 62 | 1013.4 |
| 20260506190615 | 43 | 272 | 4.0 | 6.0 | 0.00 | 0.07 | 0.07 | 61 | 1013.4 |
| 20260506185612 | 44 | 275 | 4.0 | 7.0 | 0.00 | 0.07 | 0.07 | 60 | 1013.3 |
| 20260506184609 | 44 | 279 | 3.0 | 6.0 | 0.00 | 0.07 | 0.07 | 57 | 1013.3 |
| 20260506183626 | 44 | 274 | 4.0 | 6.0 | 0.00 | 0.07 | 0.07 | 56 | 1013.3 |
| 20260506182602 | 44 | 257 | 4.0 | 7.0 | 0.00 | 0.07 | 0.07 | 50 | 1013.2 |
| 20260506181559 | 44 | 270 | 4.0 | 7.0 | 0.00 | 0.07 | 0.07 | 52 | 1013.3 |
| 20260506180556 | 45 | 254 | 4.0 | 8.0 | 0.00 | 0.07 | 0.07 | 53 | 1013.1 |
| 20260506175553 | 45 | 278 | 5.0 | 8.0 | 0.00 | 0.07 | 0.07 | 54 | 1013.2 |
| 20260506174550 | 46 | 257 | 6.0 | 9.0 | 0.00 | 0.07 | 0.07 | 57 | 1013.2 |
| 20260506173547 | 45 | 275 | 6.0 | 9.0 | 0.00 | 0.07 | 0.07 | 58 | 1013.1 |
| 20260506172544 | 46 | 283 | 6.0 | 9.0 | 0.00 | 0.07 | 0.07 | 59 | 1013.1 |
| 20260506171540 | 45 | 280 | 5.0 | 9.0 | 0.00 | 0.07 | 0.07 | 59 | 1013.1 |
| 20260506170537 | 46 | 253 | 6.0 | 11.0 | 0.00 | 0.07 | 0.07 | 63 | 1013.0 |
| 20260506165534 | 46 | 267 | 6.0 | 11.0 | 0.00 | 0.07 | 0.07 | 65 | 1013.0 |
| 20260506164531 | 46 | 266 | 6.0 | 11.0 | 0.00 | 0.07 | 0.07 | 65 | 1013.1 |
| 20260506163528 | 46 | 269 | 7.0 | 11.0 | 0.00 | 0.07 | 0.07 | 61 | 1013.0 |
| 20260506162525 | 46 | 270 | 7.0 | 11.0 | 0.00 | 0.07 | 0.07 | 62 | 1013.0 |
| 20260506161522 | 46 | 252 | 6.0 | 11.0 | 0.00 | 0.07 | 0.07 | 58 | 1013.0 |
| 20260506160518 | 47 | 248 | 7.0 | 11.0 | 0.00 | 0.07 | 0.07 | 58 | 1013.0 |
| 20260506155515 | 47 | 263 | 7.0 | 11.0 | 0.00 | 0.07 | 0.07 | 59 | 1013.0 |
| 20260506154612 | 47 | 282 | 5.0 | 8.0 | 0.00 | 0.07 | 0.07 | 55 | 1013.1 |
| 20260506153609 | 47 | 241 | 7.0 | 13.0 | 0.00 | 0.07 | 0.07 | 57 | 1013.1 |
| 20260506152606 | 47 | 248 | 6.0 | 11.0 | 0.00 | 0.07 | 0.07 | 61 | 1013.0 |
| 20260506151603 | 47 | 252 | 7.0 | 9.0 | 0.00 | 0.07 | 0.07 | 60 | 1013.1 |
| 20260506150600 | 47 | 261 | 5.0 | 11.0 | 0.00 | 0.07 | 0.07 | 60 | 1013.2 |
| 20260506145556 | 47 | 265 | 6.0 | 11.0 | 0.00 | 0.07 | 0.07 | 60 | 1013.3 |
| 20260506144554 | 46 | 254 | 8.0 | 11.0 | 0.00 | 0.07 | 0.07 | 61 | 1013.2 |
| 20260506143550 | 46 | 244 | 8.0 | 13.0 | 0.00 | 0.07 | 0.07 | 60 | 1013.3 |
| 20260506142547 | 46 | 277 | 5.0 | 8.0 | 0.00 | 0.07 | 0.07 | 57 | 1013.3 |
| 20260506141544 | 47 | 261 | 7.0 | 11.0 | 0.00 | 0.07 | 0.07 | 61 | 1013.4 |
| 20260506140540 | 45 | 255 | 5.0 | 11.0 | 0.00 | 0.07 | 0.07 | 60 | 1013.4 |
| 20260506135538 | 47 | 272 | 6.0 | 11.0 | 0.00 | 0.07 | 0.07 | 62 | 1013.3 |
| 20260506134554 | 46 | 280 | 5.0 | 8.0 | 0.00 | 0.07 | 0.07 | 59 | 1013.4 |
| 20260506133531 | 46 | 293 | 6.0 | 13.0 | 0.00 | 0.07 | 0.07 | 60 | 1013.5 |
| 20260506132528 | 46 | 256 | 5.0 | 9.0 | 0.00 | 0.07 | 0.07 | 58 | 1013.5 |
| 20260506131525 | 46 | 273 | 7.0 | 11.0 | 0.00 | 0.07 | 0.07 | 57 | 1013.5 |
| 20260506130522 | 45 | 270 | 7.0 | 11.0 | 0.00 | 0.07 | 0.07 | 62 | 1013.5 |
| 20260506125519 | 45 | 278 | 6.0 | 11.0 | 0.00 | 0.07 | 0.07 | 64 | 1013.5 |
| 20260506124556 | 44 | 251 | 8.0 | 11.0 | 0.00 | 0.07 | 0.07 | 67 | 1013.5 |
| 20260506123633 | 44 | 285 | 6.0 | 11.0 | 0.00 | 0.07 | 0.07 | 68 | 1013.4 |
| 20260506122610 | 44 | 232 | 7.0 | 11.0 | 0.00 | 0.07 | 0.07 | 64 | 1013.5 |
| 20260506121607 | 44 | 268 | 6.0 | 9.0 | 0.00 | 0.07 | 0.07 | 69 | 1013.4 |
| 20260506120603 | 44 | 243 | 8.0 | 13.0 | 0.00 | 0.07 | 0.07 | 72 | 1013.4 |
| 20260506115600 | 43 | 247 | 7.0 | 11.0 | 0.00 | 0.07 | 0.07 | 72 | 1013.6 |
| 20260506114557 | 43 | 244 | 8.0 | 13.0 | 0.00 | 0.07 | 0.07 | 68 | 1013.5 |
| 20260506113554 | 42 | 243 | 7.0 | 14.0 | 0.00 | 0.07 | 0.07 | 72 | 1013.4 |
| 20260506112551 | 41 | 243 | 7.0 | 11.0 | 0.00 | 0.07 | 0.07 | 79 | 1013.6 |
| 20260506111547 | 40 | 225 | 6.0 | 11.0 | 0.00 | 0.07 | 0.07 | 83 | 1013.5 |
| 20260506110624 | 40 | 222 | 10.0 | 15.0 | 0.00 | 0.07 | 0.07 | 82 | 1013.6 |
| 20260506105541 | 43 | 238 | 9.0 | 15.0 | 0.00 | 0.07 | 0.07 | 77 | 1013.5 |
| 20260506104538 | 42 | 241 | 8.0 | 11.0 | 0.00 | 0.07 | 0.07 | 78 | 1013.7 |
| 20260506103555 | 41 | 262 | 8.0 | 13.0 | 0.00 | 0.07 | 0.07 | 79 | 1013.6 |
| 20260506102531 | 41 | 245 | 8.0 | 11.0 | 0.00 | 0.07 | 0.07 | 81 | 1013.5 |
| 20260506101528 | 41 | 232 | 8.0 | 13.0 | 0.00 | 0.07 | 0.07 | 83 | 1013.7 |
| 20260506100525 | 40 | 228 | 9.0 | 13.0 | 0.00 | 0.07 | 0.07 | 85 | 1013.6 |
| 20260506095522 | 40 | 223 | 10.0 | 15.0 | 0.00 | 0.07 | 0.07 | 87 | 1013.5 |
| 20260506094519 | 40 | 218 | 11.0 | 16.0 | 0.00 | 0.07 | 0.07 | 87 | 1013.6 |
| 20260506093516 | 39 | 221 | 11.0 | 14.0 | 0.00 | 0.07 | 0.07 | 88 | 1013.5 |
| 20260506092613 | 39 | 229 | 13.0 | 16.0 | 0.00 | 0.07 | 0.07 | 87 | 1013.5 |
| 20260506091610 | 39 | 215 | 11.0 | 15.0 | 0.00 | 0.07 | 0.07 | 87 | 1013.6 |
| 20260506090607 | 40 | 210 | 12.0 | 15.0 | 0.00 | 0.07 | 0.07 | 86 | 1013.5 |
| 20260506085603 | 40 | 232 | 7.0 | 11.0 | 0.00 | 0.07 | 0.07 | 84 | 1013.6 |
| 20260506084600 | 39 | 229 | 8.0 | 11.0 | 0.00 | 0.07 | 0.07 | 86 | 1013.7 |
| 20260506083618 | 38 | 254 | 7.0 | 11.0 | 0.00 | 0.07 | 0.07 | 85 | 1013.6 |
| 20260506082614 | 41 | 263 | 9.0 | 16.0 | 0.00 | 0.07 | 0.07 | 81 | 1013.6 |
| 20260506081551 | 41 | 222 | 8.0 | 11.0 | 0.00 | 0.07 | 0.07 | 78 | 1013.5 |
| 20260506080548 | 41 | 248 | 5.0 | 11.0 | 0.00 | 0.07 | 0.07 | 79 | 1013.4 |
| 20260506072535 | 39 | 230 | 4.0 | 7.0 | 0.00 | 0.07 | 0.07 | 83 | 1013.3 |
| 20260506071532 | 39 | 244 | 5.0 | 7.0 | 0.01 | 0.07 | 0.07 | 85 | 1013.3 |
| 20260506070529 | 38 | 235 | 6.0 | 9.0 | 0.01 | 0.07 | 0.07 | 88 | 1013.3 |
| 20260506062516 | 35 | 217 | 11.0 | 14.0 | 0.02 | 0.08 | 0.07 | 90 | 1013.5 |
| 20260506061613 | 34 | 217 | 14.0 | 17.0 | 0.01 | 0.07 | 0.06 | 89 | 1013.5 |
| 20260506060610 | 35 | 225 | 12.0 | 16.0 | 0.02 | 0.07 | 0.06 | 87 | 1013.4 |
| 20260506050551 | 36 | 276 | 4.0 | 8.0 | 0.01 | 0.05 | 0.04 | 86 | 1013.4 |
| 20260506044545 | 36 | 338 | 8.0 | 11.0 | 0.02 | 0.05 | 0.04 | 86 | 1013.5 |
| 20260506043602 | 36 | 318 | 8.0 | 11.0 | 0.02 | 0.05 | 0.04 | 85 | 1013.7 |
| 20260506042538 | 36 | 0 | 1.0 | 4.0 | 0.02 | 0.04 | 0.02 | 86 | 1013.7 |
| 20260506041535 | 36 | 353 | 0.0 | 2.0 | 0.02 | 0.04 | 0.02 | 87 | 1013.6 |
| 20260506040532 | 36 | 350 | 2.0 | 4.0 | 0.02 | 0.04 | 0.02 | 87 | 1013.7 |
| 20260506035529 | 36 | 329 | 4.0 | 7.0 | 0.02 | 0.04 | 0.02 | 88 | 1013.9 |
| 20260506034526 | 36 | 240 | 5.0 | 8.0 | 0.01 | 0.02 | 0.01 | 87 | 1013.6 |
| 20260506033523 | 35 | 214 | 7.0 | 9.0 | 0.01 | 0.02 | 0.01 | 88 | 1013.5 |
| 20260506032520 | 35 | 206 | 6.0 | 8.0 | 0.00 | 0.01 | 0.00 | 89 | 1013.5 |
| 20260506031516 | 35 | 194 | 7.0 | 9.0 | 0.00 | 0.01 | 0.00 | 88 | 1013.7 |
| 20260506030614 | 35 | 203 | 6.0 | 9.0 | 0.00 | 0.01 | 0.00 | 85 | 1013.6 |
| 20260506025631 | 36 | 251 | 3.0 | 6.0 | 0.00 | 0.01 | 0.00 | 85 | 1013.8 |
| 20260506024607 | 35 | 231 | 3.0 | 4.0 | 0.00 | 0.01 | 0.00 | 84 | 1013.9 |
| 20260506023604 | 36 | 252 | 3.0 | 4.0 | 0.00 | 0.01 | 0.00 | 83 | 1013.9 |
| 20260506022601 | 35 | 259 | 3.0 | 6.0 | 0.00 | 0.01 | 0.00 | 84 | 1014.0 |
| 20260506021618 | 36 | 256 | 2.0 | 4.0 | 0.00 | 0.01 | 0.00 | 85 | 1014.2 |
| 20260506020554 | 36 | 271 | 2.0 | 4.0 | 0.00 | 0.02 | 0.00 | 87 | 1014.1 |
| 20260506015551 | 36 | 312 | 4.0 | 8.0 | 0.00 | 0.04 | 0.00 | 88 | 1014.2 |
| 20260506014548 | 36 | 352 | 6.0 | 11.0 | 0.00 | 0.04 | 0.00 | 89 | 1014.6 |
| 20260506013545 | 36 | 340 | 7.0 | 11.0 | 0.00 | 0.05 | 0.00 | 88 | 1014.5 |
| 20260506012602 | 37 | 334 | 8.0 | 13.0 | 0.00 | 0.05 | 0.00 | 88 | 1014.6 |
| 20260506011539 | 36 | 325 | 3.0 | 6.0 | 0.00 | 0.05 | 0.00 | 89 | 1014.5 |
| 20260506010556 | 36 | 352 | 6.0 | 7.0 | 0.00 | 0.06 | 0.00 | 88 | 1014.4 |
| 20260506005553 | 35 | 5 | 4.0 | 8.0 | 0.00 | 0.06 | 0.00 | 87 | 1014.6 |
| 20260506004529 | 36 | 19 | 1.0 | 4.0 | 0.00 | 0.06 | 0.00 | 86 | 1014.3 |
| 20260506003526 | 36 | 339 | 1.0 | 6.0 | 0.00 | 0.06 | 0.00 | 85 | 1014.6 |
| 20260506002523 | 35 | 68 | 1.0 | 2.0 | 0.00 | 0.06 | 0.00 | 85 | 1014.2 |
| 20260506001520 | 35 | 45 | 2.0 | 2.0 | 0.00 | 0.06 | 0.00 | 84 | 1014.4 |
| 20260506000517 | 36 | 0 | 1.0 | 2.0 | 0.00 | 0.06 | 0.00 | 83 | 1014.5 |
| 20260505235634 | 36 | 350 | 2.0 | 4.0 | 0.00 | 0.06 | 0.00 | 84 | 1014.7 |
| 20260505234631 | 36 | 277 | 2.0 | 4.0 | 0.00 | 0.06 | 0.00 | 84 | 1014.7 |
| 20260505233607 | 37 | 244 | 4.0 | 7.0 | 0.00 | 0.06 | 0.00 | 85 | 1014.6 |
| 20260505232604 | 35 | 248 | 5.0 | 7.0 | 0.00 | 0.06 | 0.00 | 85 | 1014.8 |
| 20260505231601 | 36 | 244 | 5.0 | 7.0 | 0.00 | 0.06 | 0.00 | 82 | 1014.7 |
| 20260505230558 | 38 | 248 | 6.0 | 11.0 | 0.00 | 0.06 | 0.00 | 77 | 1014.8 |
| 20260505225555 | 39 | 262 | 6.0 | 11.0 | 0.00 | 0.06 | 0.06 | 72 | 1014.7 |
| 20260505224551 | 39 | 266 | 7.0 | 11.0 | 0.00 | 0.06 | 0.06 | 72 | 1014.8 |
| 20260505223548 | 39 | 272 | 4.0 | 9.0 | 0.00 | 0.06 | 0.06 | 75 | 1014.7 |
| 20260505222545 | 37 | 256 | 3.0 | 7.0 | 0.00 | 0.06 | 0.06 | 77 | 1014.8 |
| 20260505221542 | 39 | 272 | 5.0 | 8.0 | 0.00 | 0.06 | 0.06 | 73 | 1014.8 |
| 20260505220559 | 39 | 299 | 4.0 | 8.0 | 0.00 | 0.06 | 0.06 | 74 | 1014.7 |
| 20260505215535 | 39 | 285 | 6.0 | 9.0 | 0.00 | 0.06 | 0.06 | 74 | 1014.9 |